Wind_Speed
17 19 21 23 25 27 28 29 27 30 28 27 23 21 20 19 15 4 5 4 10 17 17 15 8 6 4 3 2 2 1 1 1 3 0 8 8 5 5 12 4 2 6 13 23
18 20 23 25 27 29 30 30 30 29 31 27 22 17 16 18 7 5 0 10 17 20 17 14 9 9 4 3 3 2 2 3 2 3 3 12 11 10 6 12 5 7 13 23 22
18 21 23 26 28 30 30 30 31 30 30 25 18 13 12 13 2 4 7 15 19 16 13 9 11 4 3 3 4 4 2 1 2 7 7 14 9 7 12 9 6 14 18 20 21
18 21 24 26 28 30 31 31 30 31 27 21 13 11 10 4 1 1 12 17 17 11 13 9 5 5 4 6 4 4 5 5 3 5 11 13 9 9 9 3 7 18 19 20 17
19 22 24 27 29 32 31 31 29 29 25 15 9 8 4 2 2 3 15 14 15 12 8 6 5 4 4 4 6 6 5 6 6 7 11 12 11 5 10 7 13 19 18 18 18
20 23 26 28 31 33 32 31 28 25 21 10 7 6 1 2 1 3 14 16 12 9 7 5 4 3 2 3 5 7 4 4 4 7 9 16 6 5 6 13 15 19 19 17 17
21 24 27 29 32 34 33 27 27 20 12 7 6 3 1 5 1 6 13 11 10 10 5 5 4 1 3 3 2 1 3 2 4 8 6 11 4 12 10 14 17 18 17 16 17
20 23 26 30 33 35 31 25 23 15 6 6 4 2 5 1 3 10 12 7 8 9 3 2 4 0 2 1 0 4 1 3 2 10 4 14 15 13 11 16 17 18 16 16 18
19 22 25 29 33 36 28 23 14 9 5 6 2 2 4 3 1 6 10 3 8 6 4 3 1 1 2 3 4 1 5 3 6 5 7 13 7 9 10 15 17 17 16 16 16
19 22 25 28 33 30 26 16 9 4 6 3 0 2 2 1 4 3 9 7 3 7 4 2 2 2 2 4 10 7 6 3 4 10 11 15 8 3 11 16 17 17 16 16 16
18 22 25 28 32 26 22 5 7 2 7 5 7 6 6 7 5 3 5 8 2 3 5 2 5 7 4 2 1 2 4 7 4 4 9 16 18 11 11 14 16 17 17 18 18
17 21 24 27 24 23 20 6 5 6 10 9 11 10 11 6 4 2 10 5 4 5 4 4 8 5 5 4 2 2 4 2 2 2 9 12 18 20 12 19 22 21 18 19 19
15 20 24 28 11 21 8 7 13 2 4 6 5 4 2 10 6 5 10 5 4 5 5 6 1 8 4 4 4 3 5 5 3 2 1 2 6 9 10 16 17 19 20 18 20
14 18 22 26 4 18 3 15 24 6 3 4 2 1 4 3 3 4 8 4 2 3 6 4 3 5 4 4 7 6 11 7 7 7 6 6 6 5 8 10 16 20 20 22 22
13 16 19 18 11 7 8 20 14 3 2 3 2 4 3 5 4 5 2 2 7 5 4 2 5 8 4 3 9 3 5 6 5 8 4 7 5 5 4 7 15 19 24 25 25
12 15 18 15 16 7 16 19 2 2 4 2 2 2 4 3 3 3 2 4 2 4 1 2 1 3 3 4 8 6 4 3 2 3 8 10 9 7 6 6 6 14 21 25 26
12 14 18 17 4 13 16 4 2 4 2 2 1 2 3 4 4 3 9 8 6 3 3 2 4 2 3 4 3 4 5 5 7 7 10 2 6 11 8 13 14 14 12 18 22
12 16 16 16 14 15 4 1 5 2 4 3 2 0 4 2 3 2 6 8 3 3 2 2 3 4 2 5 2 5 4 7 9 10 9 4 5 5 6 11 11 10 12 12 19
13 12 10 4 7 5 2 3 4 4 3 5 4 2 2 2 4 3 3 2 2 5 4 2 1 2 4 2 2 3 6 2 2 2 4 4 4 11 7 13 13 12 8 12 18
9 6 4 7 2 5 3 4 3 3 5 2 0 1 2 2 3 3 2 3 1 2 3 2 4 1 1 2 2 5 4 3 1 7 10 5 4 5 10 12 9 12 9 11 11
2 2 6 3 7 1 4 4 4 5 4 3 1 2 1 2 3 3 2 2 2 2 3 2 2 2 2 4 2 4 3 1 2 3 7 9 6 4 10 10 13 9 7 9 8
2 1 4 5 2 0 3 3 2 1 2 2 2 2 1 2 3 4 4 2 5 1 3 2 2 3 4 2 4 3 2 2 4 3 2 4 9 4 9 11 11 10 5 4 1
2 0 5 1 3 3 3 2 2 2 2 2 3 3 2 1 3 4 3 1 5 3 3 4 1 2 1 3 2 2 1 4 3 2 5 6 6 3 6 7 5 5 2 4 3
2 2 2 2 0 2 2 4 3 2 4 3 3 2 2 1 2 4 4 2 2 4 6 2 2 0 2 3 2 6 7 6 4 4 5 8 12 12 7 5 5 3 4 6 6
0 2 2 3 4 5 2 3 2 3 3 4 2 6 3 2 2 4 2 3 3 2 3 1 2 2 5 9 6 7 11 10 8 9 6 7 7 11 8 4 1 0 4 9 11
3 2 2 1 1 3 5 3 6 3 4 4 4 1 9 3 3 6 6 3 2 2 2 1 2 2 3 1 4 8 11 12 11 10 11 8 12 4 4 3 4 4 5 9 12
2 1 1 2 2 3 4 4 3 2 6 6 3 1 7 4 1 3 2 6 5 3 2 1 2 1 2 4 9 8 7 9 7 4 4 7 8 7 7 9 10 10 8 8 11
Wind_Direction
1 3 0 358 356 354 353 353 353 347 343 336 332 328 327 326 330 307 231 168 170 163 164 148 145 145 142 138 149 167 183 114 210 229 95 162 170 128 100 137 141 144 147 134 146
358 357 355 356 353 351 350 350 349 346 340 338 332 325 326 329 334 251 273 154 153 164 154 153 154 156 158 142 153 184 210 176 213 236 221 181 187 145 134 153 138 97 106 134 148
354 353 352 352 350 349 347 347 347 343 340 340 335 324 328 332 263 30 136 151 149 153 161 153 146 174 162 170 170 166 184 201 218 232 201 172 179 158 137 182 194 162 152 154 158
349 349 349 349 347 346 347 345 343 341 340 338 336 326 334 352 192 22 160 146 154 158 145 131 142 164 156 176 174 185 239 236 308 155 170 178 160 156 156 123 190 163 164 163 170
346 346 347 347 346 345 345 343 341 339 339 335 330 331 354 314 277 18 157 166 161 156 156 146 154 157 186 180 153 209 219 214 254 192 203 164 192 174 172 95 140 149 166 178 183
343 345 346 346 345 343 342 341 339 338 338 334 332 334 352 284 355 141 162 156 169 159 156 163 176 193 144 175 221 184 220 287 298 228 209 188 174 194 115 132 145 159 177 185 195
343 344 346 345 343 342 341 340 335 333 340 347 338 347 253 253 329 166 171 177 186 178 160 201 162 188 147 191 238 177 212 155 32 158 176 173 192 221 140 151 161 179 184 191 204
340 342 344 345 344 341 339 336 331 329 337 351 345 354 259 238 339 169 169 158 178 193 189 168 186 166 200 353 175 192 169 224 116 173 167 193 225 204 159 166 175 190 191 199 206
335 340 343 345 345 341 339 330 326 325 318 350 358 12 273 321 235 188 181 161 165 188 220 99 140 24 162 200 184 91 195 176 156 193 169 202 234 215 176 190 186 191 198 205 210
335 340 343 346 345 343 340 327 342 2 356 13 26 259 261 111 318 176 195 161 151 136 138 163 112 159 126 201 211 187 171 158 163 192 191 194 231 200 192 197 204 201 201 206 215
336 338 341 346 346 356 355 1 2 344 20 262 272 282 275 318 293 166 172 153 129 141 164 115 198 201 179 161 120 125 159 162 161 183 181 212 225 221 201 213 214 213 210 211 219
336 337 340 346 349 9 41 63 58 302 304 272 245 261 268 274 290 204 163 153 170 170 132 160 221 180 137 143 164 150 146 213 307 247 215 214 229 236 209 217 216 216 215 216 222
332 336 340 346 359 8 55 77 347 275 269 300 212 231 224 170 206 222 178 138 154 156 178 207 125 144 164 146 166 198 211 181 147 49 288 334 259 241 227 235 227 230 227 226 225
330 336 342 352 28 347 331 336 341 183 301 277 254 182 140 182 208 205 185 149 130 192 171 212 151 193 167 206 195 216 211 208 157 181 229 202 239 244 234 245 220 223 219 222 227
323 332 343 353 321 315 310 327 339 177 325 15 94 136 138 199 128 193 217 125 174 162 193 114 152 160 174 171 189 200 137 193 177 205 201 197 249 228 226 226 225 221 220 221 220
314 328 334 334 320 299 323 330 126 255 251 355 116 157 168 199 140 108 145 74 93 131 187 262 214 226 191 186 195 131 126 82 98 173 229 218 228 225 226 230 250 234 223 221 217
309 319 317 309 283 307 325 322 205 231 344 1 351 342 229 156 149 154 170 178 192 177 226 245 214 246 202 218 179 206 179 205 216 217 246 129 213 254 234 238 239 261 247 228 222
310 314 310 299 297 285 314 163 222 234 260 332 333 291 162 141 75 102 148 175 79 88 113 351 115 189 121 235 234 185 212 236 228 228 239 142 221 236 258 274 251 257 274 263 223
317 310 309 312 325 170 184 189 235 222 320 326 306 93 100 137 122 108 79 126 203 191 219 180 178 283 223 237 242 141 221 335 159 86 253 246 252 277 274 260 260 268 270 253 234
328 321 304 336 180 151 183 234 239 250 322 302 18 351 114 71 110 105 81 43 82 162 242 185 246 206 280 229 146 242 131 205 217 239 251 222 247 253 280 273 271 273 304 313 286
340 310 343 137 128 225 210 229 260 254 261 300 320 335 357 101 93 103 123 91 21 77 150 136 235 172 270 210 241 158 192 174 277 252 265 270 260 230 272 291 287 282 307 320 329
118 246 86 122 165 289 214 214 272 308 304 289 274 260 276 2 81 103 117 56 359 175 91 66 126 240 270 79 320 311 305 206 256 241 256 294 266 222 266 282 285 289 302 13 34
138 77 194 255 204 203 232 256 264 258 270 318 294 250 203 58 101 109 128 90 6 67 123 167 66 303 220 145 113 53 177 139 116 197 245 283 292 223 296 286 300 283 21 67 121
145 157 180 184 308 293 240 235 242 243 237 246 275 296 307 134 34 136 124 58 44 83 63 108 107 286 293 314 310 290 290 300 234 263 291 274 293 285 290 304 319 310 93 109 124
77 177 320 167 209 227 251 306 284 300 224 202 221 228 199 135 93 114 110 129 69 38 71 33 116 218 256 263 271 271 288 295 252 269 259 299 272 299 292 278 262 304 130 136 136
146 182 147 156 253 199 181 231 245 241 233 204 215 266 214 202 180 170 147 191 165 94 77 53 152 197 269 302 259 281 282 278 269 268 250 261 272 262 270 196 166 152 162 153 144
144 123 223 104 203 183 188 224 242 345 233 244 204 28 159 175 201 87 46 97 119 126 109 68 152 232 242 324 309 268 311 294 293 232 257 246 288 331 266 215 183 161 166 145 132
Height
821 818 815 812 808 805 800 796 792 787 782 778 774 770 767 765 763 762 761 759 760 763 767 770 774 775 777 777 777 778 788 793 789 790 782 775 777 779 778 786 789 792 793 797 807
820 817 814 809 806 803 798 794 789 785 779 775 771 767 765 762 761 760 756 757 759 763 767 770 774 775 776 777 777 777 787 786 775 773 775 774 773 779 784 789 793 797 799 803 808
819 816 813 808 805 801 797 791 787 782 777 772 768 765 764 762 762 757 756 757 760 764 767 769 773 773 776 777 778 780 782 776 770 768 768 772 777 775 784 795 790 795 798 802 807
819 815 811 808 804 800 794 789 784 779 774 771 767 764 763 762 770 757 758 760 762 765 767 769 772 775 777 780 776 781 773 772 765 767 767 771 769 779 778 785 781 787 796 800 804
818 814 810 805 801 796 791 786 781 776 772 769 766 764 763 763 759 756 757 760 762 765 767 767 771 775 776 775 777 778 770 769 765 767 763 764 770 773 780 780 781 788 797 799 802
815 811 807 803 799 793 789 783 778 774 770 767 765 764 765 767 757 756 758 760 762 764 767 767 767 769 772 774 776 767 770 768 767 769 766 768 775 772 780 779 786 791 795 798 801
814 811 807 803 797 791 784 779 775 771 769 767 765 765 765 759 757 757 759 760 762 763 765 767 767 768 770 774 767 768 775 773 771 769 770 766 783 777 776 778 787 791 793 797 801
814 810 806 801 795 788 782 777 773 770 768 766 764 765 761 756 756 756 758 760 761 763 765 765 767 767 768 768 770 773 774 780 775 772 772 767 778 766 772 777 785 789 792 795 798
812 809 805 800 794 787 780 774 770 768 766 765 765 765 760 755 755 756 757 758 760 763 765 766 766 771 769 774 779 778 783 783 784 771 772 773 776 766 769 774 780 785 789 792 793
811 807 803 798 792 785 777 771 767 766 765 764 766 767 755 756 754 755 755 757 758 762 766 767 770 775 777 777 791 784 784 784 784 774 772 776 777 773 771 775 776 779 783 786 788
809 805 801 797 792 786 777 770 773 769 768 766 764 765 758 755 753 753 754 756 757 761 771 772 776 782 777 778 779 780 779 776 776 771 775 775 774 770 773 776 775 774 777 779 780
807 803 800 796 791 788 784 786 796 797 781 762 762 762 756 757 759 751 753 757 762 771 771 776 781 773 773 776 779 782 785 785 776 775 774 773 776 765 772 769 766 769 772 772 773
806 802 799 795 790 789 790 793 793 792 788 761 756 754 750 753 754 752 750 754 763 772 774 778 773 770 774 780 783 784 785 787 781 777 777 783 786 780 768 765 764 763 764 767 766
804 801 798 794 794 792 791 791 789 788 784 762 753 747 749 749 753 746 747 750 762 769 775 774 769 773 776 778 776 788 772 774 782 786 793 781 794 785 771 770 765 760 760 759 759
802 800 799 796 797 795 793 789 787 789 792 754 751 745 747 750 746 749 747 748 762 767 771 774 773 775 776 771 771 774 769 774 778 782 786 788 790 770 774 766 757 751 749 749 749
800 799 797 796 794 792 789 787 787 791 796 761 748 751 753 748 748 748 749 748 754 765 768 767 763 764 762 761 763 761 774 783 787 784 795 774 779 769 765 750 738 734 735 736 739
797 797 795 793 792 791 789 787 793 796 764 764 759 753 752 753 752 752 757 762 766 781 781 771 768 759 757 766 763 767 776 792 798 797 792 782 787 761 748 737 728 722 723 727 731
794 793 791 789 788 788 790 789 801 776 772 757 756 755 757 753 756 757 761 767 768 768 778 782 784 765 758 761 763 768 772 782 805 797 781 784 782 754 736 731 727 726 724 723 721
791 789 787 787 786 787 788 794 781 777 768 766 757 759 761 755 755 761 767 768 767 764 778 781 780 760 759 752 755 769 775 764 782 793 788 769 762 741 732 730 725 720 722 721 714
789 787 786 786 785 788 786 789 781 774 768 765 768 761 765 760 760 763 767 766 768 765 765 769 783 765 758 755 757 760 761 778 777 797 798 774 774 759 738 727 720 719 719 721 718
788 785 785 784 787 786 785 783 779 770 770 769 767 766 762 761 759 766 773 768 767 765 763 768 776 772 766 762 761 764 767 774 775 776 782 787 768 736 735 729 725 717 720 724 725
787 784 786 786 787 792 784 782 775 769 766 766 765 765 764 762 762 764 769 768 766 764 768 773 777 778 766 761 761 759 761 765 777 781 776 778 766 731 732 729 727 722 724 728 731
785 787 788 787 785 784 782 776 771 770 769 767 767 763 761 761 769 764 767 765 764 765 768 771 784 782 771 768 763 765 764 767 775 781 778 776 760 730 730 730 729 727 727 731 734
786 783 786 785 787 784 780 775 774 766 768 765 766 763 762 764 763 768 767 767 766 768 774 771 784 779 785 780 777 774 765 761 767 775 768 764 751 730 728 733 732 733 730 732 736
785 782 785 779 782 781 780 776 774 774 766 765 767 767 764 769 767 768 768 769 768 772 772 772 779 784 778 774 776 773 768 762 768 758 769 750 755 731 730 730 731 735 735 736 740
781 783 785 782 784 781 780 774 771 769 768 764 767 762 764 766 760 768 765 767 767 770 774 779 784 786 779 774 773 776 762 756 754 753 753 749 746 725 729 729 732 734 735 738 739
783 784 781 783 781 777 773 770 768 769 760 759 760 761 764 762 760 759 761 762 763 768 777 779 781 784 782 776 773 775 762 754 750 747 748 754 733 733 733 728 728 733 737 743 748